カタログに戻る

SL-14 DEB

運用中PO
NORAD 45276·DEBRIS·🇷🇺 Russia

打ち上げ Aug 15, 1991 から Plesetsk Cosmodrome

Loading…

次のパス (今後24時間)

TLE

最新Source: Space-Track

元期: Sep 14, 2026, 09:56 UTC

1 45276U 91056N   26257.41403204  .00000431  00000-0  90325-3 0  9995
2 45276  82.5857  52.4943 0048084  84.6924 275.9689 13.29009726318967

AllMySatでSL-14 DEBをリアルタイム追跡

Download on the App Store